SCP
0 0 0 0 -0 -0 -0 -0 -0 -0 -0 -0 -0 -0 -0 -0 -0 -0 -0 -0 -0 -0 -0 -0 -0 -0 -0 -0 -0 -0 -0 -0 -0 -0 -0 -0 -0 -0 -0 -0 0 0 -0
-0 0 0 0 0 -0 -0 -0 -0 -0 -0 -0 -0 -0 -0 -0 -0 -0 -0 -0 -0 -0 -0 -0 -0 -0 -0 -0 -0 -0 -0 -0 -0 -0 -0 -0 -0 -0 -0 -0 -0 0 -0
-0 -0 0 -0 -0 -0 -0 -0 -0 -0 -0 0 0 -0 -0 -0 -0 -0 -0 -0 -0 -0 -0 -0 -0 -0 -0 -0 -0 -0 -0 -0 -0 -0 -0 -0 -0 -0 -0 0 -0 0 -0
-0 0 -0 -0 -0 -0 -0 -0 -0 -0 -0 -0 -0 -0 -0 -0 -0 -0 -0 -0 -0 -0 -0 -0 -0 -0 -0 -0 -0 -0 -0 -0 -0 -0 -0 -0 -0 0 -0 -0 -0 -0 -0
-0 -0 -0 -0 -0 -0 -0 -0 -0 0 -0 -0 -0 -0 -0 -0 -0 -0 -0 -0 -0 -0 -0 -0 -0 -0 -0 -0 -0 -0 -0 -0 -0 -0 0 0 -0 0 -0 -0 -0 -0 -0
-0 -0 -0 -0 -0 -0 0 -0 -0 -0 -0 -0 -0 -0 -0 -0 -0 -0 -0 -0 -0 -0 -0 -0 -0 -0 -0 -0 -0 -0 -0 -0 0 0 0 0 0 -0 -0 -0 0 -0 0
-0 -0 0 -0 -0 0 0 0 -0 -0 -0 -0 -0 -0 -0 -0 -0 -0 -0 -0 -0 -0 -0 -0 -0 -0 -0 -0 -0 -0 -0 0 0 0 0 0 0 0 0 0 0 0 0
-0 -0 0 -0 -0 -0 -0 -0 -0 -0 -0 -0 -0 -0 -0 -0 -0 -0 -0 -0 -0 -0 -0 -0 -0 -0 -0 -0 -0 0 0 0 0 0 0 0 0 0 0 0 0 0 0
-0 -0 0 -0 -0 -0 -0 0 -0 -0 -0 -0 -0 -0 -0 -0 -0 -0 -0 -0 -0 -0 -0 -0 -0 -0 0 0 0 0 0 0 0 0 0 0 0 0 0 0 0 0 0
0 -0 -0 -0 -0 -0 0 0 0 0 -0 -0 -0 -0 -0 -0 -0 -0 -0 -0 -0 -0 -0 0 0 0 0 0 0 0 0 0 0 0 0 0 0 0 0 0 0 0 0
0 0 0 0 -0 -0 -0 0 0 0 0 -0 0 -0 -0 0 0 0 0 0 0 0 0 0 0 0 0 0 0 0 0 0 0 0 0 0 0 0 0 0 0 0 0
0 0 0 0 0 0 0 0 0 0 0 0 0 0 0 0 0 0 0 0 0 0 0 0 0 0 0 0 0 0 0 0 0 0 0 0 0 0 0 0 0 0 0
-0 0 0 0 0 0 0 0 0 0 0 0 0 0 0 0 0 0 0 0 0 0 0 0 0 0 0 0 0 0 0 0 0 0 0 0 0 0 0 0 0 0 0
0 0 0 0 0 0 0 0 0 0 0 0 0 0 0 0 0 0 0 0 0 0 0 0 0 0 0 0 0 0 0 0 0 0 0 0 0 0 0 0 0 0 0
0 0 0 0 0 0 0 0 0 0 0 0 0 0 0 0 0 0 0 0 0 0 0 0 0 0 0 0 0 0 0 0 0 0 0 0 0 0 0 0 0 0 0
0 0 0 0 0 0 0 0 0 0 0 0 0 0 0 0 0 0 0 0 0 0 0 0 0 0 0 0 0 0 0 0 0 0 0 0 0 0 0 0 0 0 0
0 0 0 0 0 0 0 0 0 0 0 0 0 0 0 0 0 0 0 0 0 0 0 0 0 0 0 0 0 0 0 0 0 0 0 0 0 0 0 0 0 0 0
0 0 0 0 0 0 0 0 0 0 0 0 0 0 0 0 0 0 0 0 0 0 0 0 0 0 0 0 0 0 0 0 0 0 0 0 0 0 0 0 0 0 0
0 0 0 0 0 0 0 0 0 0 0 0 0 0 0 0 0 0 0 0 0 0 0 0 0 0 0 0 0 0 0 0 0 0 0 0 0 0 0 0 0 0 0
0 0 0 0 0 0 0 0 0 0 0 0 0 0 0 0 0 0 0 0 0 0 0 0 0 0 0 0 0 0 0 0 0 0 0 0 0 0 0 0 0 0 0
0 0 0 0 0 0 0 0 0 0 0 0 0 0 0 0 0 0 0 0 0 0 0 0 0 0 0 0 0 0 0 0 0 0 0 0 0 0 0 0 0 0 0
0 0 0 0 0 0 0 0 0 0 0 0 0 0 0 0 0 0 0 0 0 0 0 0 0 0 0 0 0 0 0 0 0 0 0 0 0 0 0 0 0 0 0
0 0 0 0 0 0 0 0 0 0 0 0 0 0 0 0 0 0 0 0 0 0 0 0 0 0 0 0 0 0 0 0 0 0 0 0 0 0 0 0 0 0 0
0 0 0 0 0 0 0 0 0 0 0 0 0 0 0 0 0 0 0 0 0 0 0 0 0 0 0 0 0 0 0 0 0 0 0 0 0 0 0 0 0 0 0
0 0 0 0 0 0 0 0 0 0 0 0 0 0 0 0 0 0 0 0 0 0 0 0 0 0 0 0 0 0 0 0 0 0 0 0 0 0 0 0 0 0 0
0 0 0 0 0 0 0 0 0 0 0 0 0 0 0 0 0 0 0 0 0 0 0 0 0 0 0 0 0 0 0 0 0 0 0 0 0 0 0 0 0 0 0
Wind_Speed_500mb
30 24 22 20 20 19 15 13 12 8 6 5 4 5 10 14 19 24 27 27 34 32 32 33 32 38 33 35 36 36 35 36 36 39 40 39 37 37 37 39 40 39 39
29 27 23 20 18 17 12 10 10 8 6 6 7 17 23 26 27 28 30 31 33 32 31 33 30 35 33 35 37 36 35 34 34 33 37 38 35 37 35 34 34 36 36
30 26 24 23 18 16 13 12 10 8 7 8 19 22 24 29 29 28 29 31 33 30 35 38 25 30 34 37 36 34 33 31 31 31 39 38 37 35 34 34 34 32 34
31 25 26 24 18 19 17 11 10 11 11 16 20 24 24 28 29 28 29 32 32 29 33 30 30 33 35 37 35 31 28 26 27 38 39 32 31 27 33 35 31 27 21
34 23 24 24 20 20 18 14 10 9 13 17 21 24 23 25 28 25 27 31 30 29 31 30 34 34 34 32 29 29 28 29 27 31 32 32 29 24 26 21 18 15 15
32 24 23 24 22 21 17 15 13 4 12 13 17 24 21 23 23 23 24 30 28 27 28 28 29 30 29 28 28 28 27 27 29 29 27 27 30 22 19 14 12 13 18
29 24 22 24 24 23 20 17 12 5 8 7 12 19 20 22 24 22 24 26 27 24 26 27 26 24 24 24 24 24 23 22 22 23 24 25 19 11 10 14 17 19 24
22 21 22 24 26 24 22 23 18 11 5 3 7 20 14 20 20 20 21 22 22 21 23 24 22 20 20 20 21 21 20 19 19 19 21 20 14 10 18 19 17 22 26
23 22 21 24 28 29 25 22 17 13 10 8 7 13 16 16 18 19 19 19 18 18 18 17 17 17 17 17 18 20 20 17 16 15 17 13 6 13 20 19 20 22 25
25 23 23 24 27 31 27 23 19 15 12 10 13 12 13 16 19 18 17 17 18 17 14 12 12 13 15 16 17 18 20 20 13 10 10 6 12 12 17 11 17 23 23
31 27 26 25 24 25 25 23 19 15 11 10 11 13 15 17 18 18 18 18 17 16 13 9 7 11 13 15 15 16 18 17 11 4 5 5 11 14 9 16 21 22 23
39 32 29 27 27 25 26 24 20 15 12 11 14 16 17 17 16 15 15 14 13 10 7 4 6 8 9 12 14 15 15 15 16 3 2 4 7 6 12 17 21 19 17
36 34 31 30 27 25 25 27 25 19 14 12 14 14 14 14 14 13 11 10 9 7 3 1 3 4 7 9 11 13 16 18 12 13 6 9 9 6 12 19 22 16 15
44 37 32 30 31 29 28 27 26 23 18 15 14 16 16 15 15 13 12 12 10 8 6 5 5 6 7 8 8 11 11 11 13 21 16 18 10 5 16 21 23 18 19
47 45 41 35 34 34 33 30 28 27 22 20 18 17 17 17 16 16 14 13 11 9 8 7 8 9 8 8 10 8 13 14 16 18 17 21 14 15 21 21 24 23 19
47 49 46 41 37 36 36 34 30 29 27 26 24 21 19 20 19 19 18 15 12 11 11 11 11 11 12 12 14 13 12 16 19 20 20 21 20 17 23 24 25 22 12
47 47 49 46 40 39 38 37 36 33 32 31 28 26 25 23 23 23 20 17 16 17 16 15 14 15 16 17 16 16 15 19 22 23 25 25 25 20 24 26 25 21 15
48 50 48 47 47 44 42 39 38 37 36 35 33 32 30 29 28 26 25 22 22 21 20 19 18 18 20 21 21 18 19 21 25 28 28 29 27 33 30 26 26 24 24
50 49 54 53 53 46 45 44 42 40 39 36 37 38 36 34 32 31 29 26 26 26 24 24 23 21 22 24 25 23 23 26 28 28 30 31 34 39 37 32 31 30 28
52 56 53 56 58 54 51 50 48 49 48 43 41 41 39 39 38 36 34 32 32 31 30 28 27 26 25 26 31 33 34 31 30 31 35 36 35 36 36 37 38 38 33
56 59 61 60 64 64 65 63 62 61 58 53 47 44 42 43 41 42 40 38 39 38 34 32 32 32 32 32 37 39 43 41 41 40 43 41 37 39 43 42 38 38 37
55 57 60 67 65 69 72 72 69 64 64 59 52 49 45 46 47 47 45 45 43 42 41 40 39 40 39 39 41 39 43 46 45 41 38 41 40 47 48 46 45 43 40
57 59 62 63 64 67 71 72 71 72 73 69 67 61 56 52 49 51 50 48 47 47 48 46 45 46 47 44 47 42 24 22 33 39 46 51 51 54 54 54 53 50 47
62 59 61 60 64 65 68 72 76 76 78 75 71 62 60 58 56 53 50 51 52 54 56 52 50 51 50 52 51 54 56 59 57 48 52 57 60 63 65 57 55 54 51
65 65 62 62 66 68 67 74 74 75 73 69 70 64 62 61 62 61 59 56 56 59 60 56 55 56 57 57 57 59 61 64 69 75 68 72 68 69 72 67 65 62 57
74 72 71 73 69 71 73 71 76 73 71 71 68 65 62 59 60 64 65 64 62 62 61 60 59 61 62 61 63 66 69 70 68 72 80 88 92 89 85 80 78 71 68
Wind_Direction_500mb
164 152 144 147 141 141 140 137 129 113 92 77 33 122 120 115 105 108 120 106 104 101 94 98 93 93 98 88 88 85 82 78 79 79 77 77 76 70 65 63 64 63 59
164 154 149 146 142 142 146 130 112 84 51 28 77 105 109 109 111 113 110 105 108 103 92 96 101 89 89 87 82 79 78 77 77 78 80 76 68 65 64 67 68 58 54
164 153 151 148 149 145 145 135 109 72 57 80 112 102 109 109 107 106 108 111 109 99 94 100 104 85 84 85 82 79 77 74 71 67 72 69 63 54 50 56 54 56 64
165 155 157 155 159 153 149 133 106 81 67 104 109 110 108 112 107 104 109 109 110 101 97 100 101 89 89 87 83 78 72 68 76 75 69 67 61 52 54 65 72 80 76
168 165 167 164 168 161 153 132 111 81 84 120 103 114 110 110 113 108 111 112 113 102 101 101 93 90 86 83 78 72 66 63 75 75 63 58 60 73 76 62 61 48 27
171 171 174 174 177 170 163 146 154 131 89 105 117 115 121 115 114 113 106 110 111 104 102 103 93 90 84 78 71 66 64 62 62 72 80 72 73 72 66 47 14 350 6
170 170 170 181 174 171 168 160 168 182 119 96 122 124 122 115 116 109 106 108 117 113 102 101 97 90 82 73 66 63 61 60 61 68 73 72 61 38 19 331 19 11 17
179 173 172 181 176 172 171 176 189 193 169 144 136 132 123 123 117 113 110 109 115 113 103 97 92 84 74 63 56 50 48 50 55 71 78 84 61 8 346 46 25 31 25
184 184 173 181 172 168 182 183 182 185 165 152 154 156 144 135 126 118 116 115 116 104 98 92 82 72 64 58 48 38 36 40 51 83 98 86 356 332 0 55 52 32 26
189 187 181 182 175 171 179 182 180 186 187 178 167 161 142 138 126 122 122 121 116 117 106 89 75 64 56 47 39 31 32 36 50 93 102 58 335 25 33 47 27 23 22
192 189 190 183 181 179 183 185 189 190 187 176 171 161 151 141 139 142 139 132 131 131 126 109 68 52 45 37 31 20 14 14 20 128 117 27 344 23 18 18 20 17 17
197 194 195 194 189 188 191 196 200 201 197 183 179 180 171 162 159 157 152 146 142 132 105 53 21 17 20 24 18 11 6 10 18 85 160 28 34 41 350 23 15 19 24
210 206 204 203 203 201 201 203 206 209 205 191 187 188 185 181 177 173 160 153 153 162 179 298 317 335 357 6 11 14 8 6 12 2 338 4 325 306 325 6 8 17 14
218 216 213 216 216 211 211 213 212 214 213 205 195 193 194 196 193 181 181 181 182 193 221 250 275 300 319 342 1 8 357 344 336 330 331 357 313 249 302 343 354 356 353
221 221 221 223 225 221 219 218 220 220 216 212 206 208 208 204 202 199 203 204 208 223 247 268 278 282 289 308 325 336 322 320 313 322 316 328 324 278 296 319 333 334 336
223 224 224 228 230 232 230 228 228 228 226 221 218 214 219 217 213 212 215 219 228 239 251 259 265 274 276 284 298 297 302 300 300 308 314 312 320 296 296 304 316 316 315
226 223 226 230 232 237 239 235 233 232 232 232 229 224 221 225 226 226 229 230 234 241 250 259 270 276 275 273 277 290 284 296 295 298 301 304 298 301 301 302 304 303 291
232 227 227 231 231 235 239 240 240 236 234 235 235 234 230 230 231 233 234 234 238 244 252 260 267 272 271 271 277 292 291 293 298 302 301 303 300 312 305 300 297 300 302
237 233 230 232 234 235 237 242 241 237 238 236 235 236 237 236 238 238 239 239 243 248 254 259 263 269 273 273 275 284 286 298 301 302 308 310 301 313 311 301 297 301 301
240 236 235 235 238 238 238 240 243 240 239 238 236 237 237 239 242 243 244 243 247 251 254 260 265 268 276 268 274 273 274 279 288 298 294 299 308 317 320 318 305 297 295
242 237 235 235 234 235 236 237 237 240 240 241 240 238 239 240 243 244 246 246 247 252 258 259 259 260 265 270 273 276 276 275 280 287 289 289 299 313 313 306 303 298 290
245 242 239 238 235 235 237 240 242 245 244 245 246 244 243 244 245 246 248 249 251 254 257 259 261 263 260 263 268 274 279 281 282 290 295 296 312 300 291 290 289 289 286
245 243 241 241 242 239 237 240 242 245 244 241 241 242 243 246 248 250 252 254 255 256 258 259 261 262 264 267 263 262 274 274 290 290 294 297 296 294 293 293 289 288 285
246 241 242 244 243 242 239 238 239 242 244 243 245 246 249 251 252 254 256 256 256 257 257 258 260 261 261 263 263 263 264 271 271 286 289 287 288 293 292 291 292 284 279
247 244 244 245 243 241 240 238 240 242 246 248 250 252 252 252 253 254 255 257 258 258 260 261 261 261 262 263 265 266 268 271 271 270 276 287 286 288 290 290 290 279 271
244 246 245 244 246 242 239 238 239 242 244 248 249 250 251 252 253 253 253 255 259 261 263 263 265 264 264 266 266 269 265 264 268 270 272 280 283 284 286 287 285 281 284
Wind_Speed_850mb
30 24 22 20 20 19 15 13 12 8 6 5 4 5 10 14 19 24 27 27 34 32 32 33 32 38 33 35 36 36 35 36 36 39 40 39 37 37 37 39 40 39 39
29 27 23 20 18 17 12 10 10 8 6 6 7 17 23 26 27 28 30 31 33 32 31 33 30 35 33 35 37 36 35 34 34 33 37 38 35 37 35 34 34 36 36
30 26 24 23 18 16 13 12 10 8 7 8 19 22 24 29 29 28 29 31 33 30 35 38 25 30 34 37 36 34 33 31 31 31 39 38 37 35 34 34 34 32 34
31 25 26 24 18 19 17 11 10 11 11 16 20 24 24 28 29 28 29 32 32 29 33 30 30 33 35 37 35 31 28 26 27 38 39 32 31 27 33 35 31 27 21
34 23 24 24 20 20 18 14 10 9 13 17 21 24 23 25 28 25 27 31 30 29 31 30 34 34 34 32 29 29 28 29 27 31 32 32 29 24 26 21 18 15 15
32 24 23 24 22 21 17 15 13 4 12 13 17 24 21 23 23 23 24 30 28 27 28 28 29 30 29 28 28 28 27 27 29 29 27 27 30 22 19 14 12 13 18
29 24 22 24 24 23 20 17 12 5 8 7 12 19 20 22 24 22 24 26 27 24 26 27 26 24 24 24 24 24 23 22 22 23 24 25 19 11 10 14 17 19 24
22 21 22 24 26 24 22 23 18 11 5 3 7 20 14 20 20 20 21 22 22 21 23 24 22 20 20 20 21 21 20 19 19 19 21 20 14 10 18 19 17 22 26
23 22 21 24 28 29 25 22 17 13 10 8 7 13 16 16 18 19 19 19 18 18 18 17 17 17 17 17 18 20 20 17 16 15 17 13 6 13 20 19 20 22 25
25 23 23 24 27 31 27 23 19 15 12 10 13 12 13 16 19 18 17 17 18 17 14 12 12 13 15 16 17 18 20 20 13 10 10 6 12 12 17 11 17 23 23
31 27 26 25 24 25 25 23 19 15 11 10 11 13 15 17 18 18 18 18 17 16 13 9 7 11 13 15 15 16 18 17 11 4 5 5 11 14 9 16 21 22 23
39 32 29 27 27 25 26 24 20 15 12 11 14 16 17 17 16 15 15 14 13 10 7 4 6 8 9 12 14 15 15 15 16 3 2 4 7 6 12 17 21 19 17
36 34 31 30 27 25 25 27 25 19 14 12 14 14 14 14 14 13 11 10 9 7 3 1 3 4 7 9 11 13 16 18 12 13 6 9 9 6 12 19 22 16 15
44 37 32 30 31 29 28 27 26 23 18 15 14 16 16 15 15 13 12 12 10 8 6 5 5 6 7 8 8 11 11 11 13 21 16 18 10 5 16 21 23 18 19
47 45 41 35 34 34 33 30 28 27 22 20 18 17 17 17 16 16 14 13 11 9 8 7 8 9 8 8 10 8 13 14 16 18 17 21 14 15 21 21 24 23 19
47 49 46 41 37 36 36 34 30 29 27 26 24 21 19 20 19 19 18 15 12 11 11 11 11 11 12 12 14 13 12 16 19 20 20 21 20 17 23 24 25 22 12
47 47 49 46 40 39 38 37 36 33 32 31 28 26 25 23 23 23 20 17 16 17 16 15 14 15 16 17 16 16 15 19 22 23 25 25 25 20 24 26 25 21 15
48 50 48 47 47 44 42 39 38 37 36 35 33 32 30 29 28 26 25 22 22 21 20 19 18 18 20 21 21 18 19 21 25 28 28 29 27 33 30 26 26 24 24
50 49 54 53 53 46 45 44 42 40 39 36 37 38 36 34 32 31 29 26 26 26 24 24 23 21 22 24 25 23 23 26 28 28 30 31 34 39 37 32 31 30 28
52 56 53 56 58 54 51 50 48 49 48 43 41 41 39 39 38 36 34 32 32 31 30 28 27 26 25 26 31 33 34 31 30 31 35 36 35 36 36 37 38 38 33
56 59 61 60 64 64 65 63 62 61 58 53 47 44 42 43 41 42 40 38 39 38 34 32 32 32 32 32 37 39 43 41 41 40 43 41 37 39 43 42 38 38 37
55 57 60 67 65 69 72 72 69 64 64 59 52 49 45 46 47 47 45 45 43 42 41 40 39 40 39 39 41 39 43 46 45 41 38 41 40 47 48 46 45 43 40
57 59 62 63 64 67 71 72 71 72 73 69 67 61 56 52 49 51 50 48 47 47 48 46 45 46 47 44 47 42 24 22 33 39 46 51 51 54 54 54 53 50 47
62 59 61 60 64 65 68 72 76 76 78 75 71 62 60 58 56 53 50 51 52 54 56 52 50 51 50 52 51 54 56 59 57 48 52 57 60 63 65 57 55 54 51
65 65 62 62 66 68 67 74 74 75 73 69 70 64 62 61 62 61 59 56 56 59 60 56 55 56 57 57 57 59 61 64 69 75 68 72 68 69 72 67 65 62 57
74 72 71 73 69 71 73 71 76 73 71 71 68 65 62 59 60 64 65 64 62 62 61 60 59 61 62 61 63 66 69 70 68 72 80 88 92 89 85 80 78 71 68
Wind_Direction_850mb
164 152 144 147 141 141 140 137 129 113 92 77 33 122 120 115 105 108 120 106 104 101 94 98 93 93 98 88 88 85 82 78 79 79 77 77 76 70 65 63 64 63 59
164 154 149 146 142 142 146 130 112 84 51 28 77 105 109 109 111 113 110 105 108 103 92 96 101 89 89 87 82 79 78 77 77 78 80 76 68 65 64 67 68 58 54
164 153 151 148 149 145 145 135 109 72 57 80 112 102 109 109 107 106 108 111 109 99 94 100 104 85 84 85 82 79 77 74 71 67 72 69 63 54 50 56 54 56 64
165 155 157 155 159 153 149 133 106 81 67 104 109 110 108 112 107 104 109 109 110 101 97 100 101 89 89 87 83 78 72 68 76 75 69 67 61 52 54 65 72 80 76
168 165 167 164 168 161 153 132 111 81 84 120 103 114 110 110 113 108 111 112 113 102 101 101 93 90 86 83 78 72 66 63 75 75 63 58 60 73 76 62 61 48 27
171 171 174 174 177 170 163 146 154 131 89 105 117 115 121 115 114 113 106 110 111 104 102 103 93 90 84 78 71 66 64 62 62 72 80 72 73 72 66 47 14 350 6
170 170 170 181 174 171 168 160 168 182 119 96 122 124 122 115 116 109 106 108 117 113 102 101 97 90 82 73 66 63 61 60 61 68 73 72 61 38 19 331 19 11 17
179 173 172 181 176 172 171 176 189 193 169 144 136 132 123 123 117 113 110 109 115 113 103 97 92 84 74 63 56 50 48 50 55 71 78 84 61 8 346 46 25 31 25
184 184 173 181 172 168 182 183 182 185 165 152 154 156 144 135 126 118 116 115 116 104 98 92 82 72 64 58 48 38 36 40 51 83 98 86 356 332 0 55 52 32 26
189 187 181 182 175 171 179 182 180 186 187 178 167 161 142 138 126 122 122 121 116 117 106 89 75 64 56 47 39 31 32 36 50 93 102 58 335 25 33 47 27 23 22
192 189 190 183 181 179 183 185 189 190 187 176 171 161 151 141 139 142 139 132 131 131 126 109 68 52 45 37 31 20 14 14 20 128 117 27 344 23 18 18 20 17 17
197 194 195 194 189 188 191 196 200 201 197 183 179 180 171 162 159 157 152 146 142 132 105 53 21 17 20 24 18 11 6 10 18 85 160 28 34 41 350 23 15 19 24
210 206 204 203 203 201 201 203 206 209 205 191 187 188 185 181 177 173 160 153 153 162 179 298 317 335 357 6 11 14 8 6 12 2 338 4 325 306 325 6 8 17 14
218 216 213 216 216 211 211 213 212 214 213 205 195 193 194 196 193 181 181 181 182 193 221 250 275 300 319 342 1 8 357 344 336 330 331 357 313 249 302 343 354 356 353
221 221 221 223 225 221 219 218 220 220 216 212 206 208 208 204 202 199 203 204 208 223 247 268 278 282 289 308 325 336 322 320 313 322 316 328 324 278 296 319 333 334 336
223 224 224 228 230 232 230 228 228 228 226 221 218 214 219 217 213 212 215 219 228 239 251 259 265 274 276 284 298 297 302 300 300 308 314 312 320 296 296 304 316 316 315
226 223 226 230 232 237 239 235 233 232 232 232 229 224 221 225 226 226 229 230 234 241 250 259 270 276 275 273 277 290 284 296 295 298 301 304 298 301 301 302 304 303 291
232 227 227 231 231 235 239 240 240 236 234 235 235 234 230 230 231 233 234 234 238 244 252 260 267 272 271 271 277 292 291 293 298 302 301 303 300 312 305 300 297 300 302
237 233 230 232 234 235 237 242 241 237 238 236 235 236 237 236 238 238 239 239 243 248 254 259 263 269 273 273 275 284 286 298 301 302 308 310 301 313 311 301 297 301 301
240 236 235 235 238 238 238 240 243 240 239 238 236 237 237 239 242 243 244 243 247 251 254 260 265 268 276 268 274 273 274 279 288 298 294 299 308 317 320 318 305 297 295
242 237 235 235 234 235 236 237 237 240 240 241 240 238 239 240 243 244 246 246 247 252 258 259 259 260 265 270 273 276 276 275 280 287 289 289 299 313 313 306 303 298 290
245 242 239 238 235 235 237 240 242 245 244 245 246 244 243 244 245 246 248 249 251 254 257 259 261 263 260 263 268 274 279 281 282 290 295 296 312 300 291 290 289 289 286
245 243 241 241 242 239 237 240 242 245 244 241 241 242 243 246 248 250 252 254 255 256 258 259 261 262 264 267 263 262 274 274 290 290 294 297 296 294 293 293 289 288 285
246 241 242 244 243 242 239 238 239 242 244 243 245 246 249 251 252 254 256 256 256 257 257 258 260 261 261 263 263 263 264 271 271 286 289 287 288 293 292 291 292 284 279
247 244 244 245 243 241 240 238 240 242 246 248 250 252 252 252 253 254 255 257 258 258 260 261 261 261 262 263 265 266 268 271 271 270 276 287 286 288 290 290 290 279 271
244 246 245 244 246 242 239 238 239 242 244 248 249 250 251 252 253 253 253 255 259 261 263 263 265 264 264 266 266 269 265 264 268 270 272 280 283 284 286 287 285 281 284